EW6576 Weather Reports


Display with metric or nautical units.
time (UTC)temp
F
wind
direction
speed
MPH
gust
MPH
rain 1hr
in
rain 24hr
in
rain mn
in
humidity
%
barometer
mb
20260904200732 82 95 7.0 8.0 0.00 0.00 0.00 55 1012.9
20260904200227 82 29 6.0 10.0 0.00 0.00 0.00 54 1013.1
20260904195726 81 142 5.0 8.0 0.00 0.00 0.00 54 1013.3
20260904195224 80 117 6.0 7.0 0.00 0.00 0.00 55 1012.9
20260904194720 80 144 5.0 8.0 0.00 0.00 0.00 55 1013.0
20260904194219 81 140 4.0 5.0 0.00 0.00 0.00 53 1012.8
20260904193714 81 167 5.0 6.0 0.00 0.00 0.00 53 1013.1
20260904193210 82 135 8.0 9.0 0.00 0.00 0.00 51 1013.2
20260904192705 83 151 2.0 2.0 0.00 0.00 0.00 49 1013.3
20260904192200 82 137 1.0 2.0 0.00 0.00 0.00 48 1013.1
20260904191657 82 121 0.0 1.0 0.00 0.00 0.00 47 1013.2
20260904191153 82 150 1.0 1.0 0.00 0.00 0.00 48 1013.2
20260904190649 82 146 3.0 3.0 0.00 0.00 0.00 48 1013.4
20260904190145 82 129 3.0 3.0 0.00 0.00 0.00 48 1013.4
20260904185642 81 262 2.0 2.0 0.00 0.00 0.00 48 1013.8
20260904185136 80 17 2.0 2.0 0.00 0.00 0.00 52 1013.7
20260904184634 80 63 3.0 5.0 0.00 0.00 0.00 50 1014.0
20260904184130 80 348 2.0 2.0 0.00 0.00 0.00 51 1013.7
20260904183626 79 11 3.0 3.0 0.00 0.00 0.00 51 1014.0
20260904183120 79 90 3.0 5.0 0.00 0.00 0.00 52 1013.7
20260904182615 79 178 0.0 1.0 0.00 0.00 0.00 54 1013.8
20260904182110 79 83 3.0 6.0 0.00 0.00 0.00 54 1014.0
20260904181606 79 223 2.0 2.0 0.00 0.00 0.00 54 1013.8
20260904181106 78 8 4.0 6.0 0.00 0.00 0.00 54 1014.1
20260904180601 78 251 1.0 1.0 0.00 0.00 0.00 56 1014.0
20260904180056 77 81 2.0 3.0 0.00 0.00 0.00 56 1013.9
20260904175555 78 202 1.0 1.0 0.00 0.00 0.00 57 1014.0
20260904175054 76 104 1.0 1.0 0.00 0.00 0.00 60 1014.1
20260904174549 76 37 2.0 3.0 0.00 0.00 0.00 60 1014.1
20260904174046 76 128 4.0 6.0 0.00 0.00 0.00 58 1014.2
20260904173546 75 14 3.0 3.0 0.00 0.00 0.00 61 1014.2
20260904173041 75 78 2.0 3.0 0.00 0.00 0.00 62 1014.2
20260904172537 76 82 4.0 5.0 0.00 0.00 0.00 61 1014.2
20260904172036 75 153 1.0 1.0 0.00 0.00 0.00 63 1014.3
20260904171532 75 122 2.0 2.0 0.00 0.00 0.00 65 1014.3
20260904171028 74 186 0.0 0.0 0.00 0.00 0.00 65 1014.3
20260904170522 74 162 0.0 0.0 0.00 0.00 0.00 66 1014.4
20260904170019 73 261 1.0 2.0 0.00 0.00 0.00 68 1014.1
20260904165517 73 23 3.0 3.0 0.00 0.00 0.00 68 1014.0
20260904165017 73 172 0.0 0.0 0.00 0.00 0.00 70 1014.1
20260904164512 72 139 1.0 1.0 0.00 0.00 0.00 70 1014.1
20260904164008 71 188 1.0 2.0 0.00 0.00 0.00 71 1014.1
20260904163507 72 64 2.0 2.0 0.00 0.00 0.00 72 1013.9
20260904163002 71 13 2.0 3.0 0.00 0.00 0.00 73 1014.1
20260904162457 71 29 1.0 2.0 0.00 0.00 0.00 73 1013.9
20260904161952 72 117 1.0 1.0 0.00 0.00 0.00 73 1014.0
20260904161448 72 146 1.0 1.0 0.00 0.00 0.00 73 1013.7
20260904160943 69 167 0.0 0.0 0.00 0.00 0.00 75 1013.7
20260904160437 70 29 1.0 2.0 0.00 0.00 0.00 75 1013.9
20260904155932 69 112 1.0 1.0 0.00 0.00 0.00 76 1013.7
20260904155427 69 224 2.0 2.0 0.00 0.00 0.00 75 1013.8
20260904154926 69 110 1.0 1.0 0.00 0.00 0.00 78 1013.8
20260904154421 68 97 1.0 1.0 0.00 0.00 0.00 78 1014.0
20260904153916 68 236 1.0 1.0 0.00 0.00 0.00 79 1013.5
20260904153411 68 181 0.0 0.0 0.00 0.00 0.00 79 1013.6
20260904152908 68 77 1.0 1.0 0.00 0.00 0.00 79 1013.6
20260904152402 68 126 1.0 1.0 0.00 0.00 0.00 80 1013.7
20260904151901 67 198 0.0 1.0 0.00 0.00 0.00 81 1013.5
20260904151356 67 159 0.0 0.0 0.00 0.00 0.00 82 1013.7
20260904150852 68 132 1.0 1.0 0.00 0.00 0.00 80 1013.5
20260904150347 67 156 0.0 1.0 0.00 0.00 0.00 81 1013.7
20260904145844 67 159 0.0 0.0 0.00 0.00 0.00 83 1013.8
20260904145341 66 177 0.0 0.0 0.00 0.00 0.00 84 1013.7
20260904144836 66 156 0.0 1.0 0.00 0.00 0.00 85 1013.7
20260904144332 64 153 0.0 0.0 0.00 0.00 0.00 87 1013.6
20260904143827 64 156 0.0 0.0 0.00 0.00 0.00 90 1013.7
20260904143324 63 148 1.0 1.0 0.00 0.00 0.00 92 1013.6
20260904142820 62 163 0.0 1.0 0.00 0.00 0.00 94 1013.5
20260904142316 60 165 0.0 0.0 0.00 0.00 0.00 95 1013.5
20260904141810 60 165 0.0 0.0 0.00 0.00 0.00 94 1013.5
20260904141305 59 167 0.0 0.0 0.00 0.00 0.00 95 1013.3
20260904140801 59 161 0.0 0.0 0.00 0.00 0.00 95 1013.3
20260904140256 59 160 1.0 1.0 0.00 0.00 0.00 94 1013.4
20260904135755 59 154 0.0 0.0 0.00 0.00 0.00 94 1013.5
20260904135250 59 150 0.0 0.0 0.00 0.00 0.00 94 1013.4
20260904134747 60 159 1.0 1.0 0.00 0.00 0.00 93 1013.3
20260904134246 60 152 0.0 0.0 0.00 0.00 0.00 93 1013.0
20260904133741 60 175 1.0 1.0 0.00 0.00 0.00 93 1013.1
20260904133237 60 171 0.0 1.0 0.00 0.00 0.00 93 1013.2
20260904132736 61 173 0.0 0.0 0.00 0.00 0.00 92 1013.0
20260904132232 62 177 0.0 0.0 0.00 0.00 0.00 91 1013.0
20260904131731 62 179 0.0 0.0 0.00 0.00 0.00 91 1012.8
20260904131227 62 153 0.0 0.0 0.00 0.00 0.00 90 1013.2
20260904130727 63 156 0.0 0.0 0.00 0.00 0.00 90 1013.1
20260904130225 63 144 0.0 1.0 0.00 0.00 0.00 90 1012.9
20260904125722 63 152 0.0 0.0 0.00 0.00 0.00 90 1013.0
20260904125218 63 150 0.0 1.0 0.00 0.00 0.00 91 1013.0
20260904124712 63 144 0.0 1.0 0.00 0.00 0.00 91 1012.9
20260904124208 63 129 2.0 2.0 0.00 0.00 0.00 90 1012.7
20260904123702 64 106 1.0 2.0 0.00 0.00 0.00 90 1012.9
20260904123158 64 152 0.0 0.0 0.00 0.00 0.00 90 1012.7
20260904122652 63 175 0.0 0.0 0.00 0.00 0.00 89 1012.8
20260904122147 63 174 1.0 1.0 0.00 0.00 0.00 90 1012.8
20260904121642 63 172 0.0 0.0 0.00 0.00 0.00 91 1012.9
20260904121138 63 180 0.0 1.0 0.00 0.00 0.00 91 1012.7
20260904120634 63 168 0.0 0.0 0.00 0.00 0.00 92 1012.7
20260904120130 63 164 0.0 1.0 0.00 0.00 0.00 92 1012.8
20260904115630 63 168 0.0 0.0 0.00 0.00 0.00 93 1012.8
20260904115125 63 168 0.0 0.0 0.00 0.00 0.00 93 1012.7
20260904114620 63 167 1.0 1.0 0.00 0.00 0.00 93 1013.0
20260904114115 63 167 1.0 1.0 0.00 0.00 0.00 93 1013.0
20260904113615 63 167 0.0 0.0 0.00 0.00 0.00 93 1012.9
20260904113114 63 168 0.0 0.0 0.00 0.00 0.00 94 1013.1
20260904112609 62 167 0.0 0.0 0.00 0.00 0.00 94 1013.0
20260904112105 62 167 0.0 0.0 0.00 0.00 0.00 94 1012.9
20260904111601 62 169 0.0 1.0 0.00 0.00 0.00 94 1012.9
20260904111056 62 168 0.0 1.0 0.00 0.00 0.00 94 1012.9
20260904110550 62 169 1.0 1.0 0.00 0.00 0.00 94 1013.0
20260904110046 62 168 0.0 0.0 0.00 0.00 0.00 95 1012.9
20260904105545 62 170 1.0 1.0 0.00 0.00 0.00 95 1013.1
20260904105040 62 171 0.0 0.0 0.00 0.00 0.00 95 1012.9
20260904104536 62 166 0.0 0.0 0.00 0.00 0.00 95 1012.9
20260904104031 62 166 0.0 0.0 0.00 0.00 0.00 96 1012.8
20260904103527 61 165 0.0 0.0 0.00 0.00 0.00 96 1013.0
20260904103023 61 165 0.0 0.0 0.00 0.00 0.00 96 1012.7
20260904102519 61 163 0.0 0.0 0.00 0.00 0.00 96 1012.8
20260904102014 61 162 0.0 0.0 0.00 0.00 0.00 96 1012.7
20260904101511 61 153 0.0 0.0 0.00 0.00 0.00 96 1012.5
20260904101006 60 143 0.0 0.0 0.00 0.00 0.00 96 1012.5
20260904100502 60 133 0.0 0.0 0.00 0.00 0.00 97 1012.7
20260904100001 60 132 0.0 0.0 0.00 0.00 0.00 97 1012.7
20260904095456 60 132 0.0 0.0 0.00 0.00 0.00 97 1012.9
20260904094951 59 131 0.0 0.0 0.00 0.00 0.00 97 1012.8
20260904094446 59 129 0.0 0.0 0.00 0.00 0.00 97 1012.6
20260904093942 59 129 0.0 0.0 0.00 0.00 0.00 97 1012.8
20260904093438 59 129 0.0 0.0 0.00 0.00 0.00 97 1012.8
20260904092933 59 129 0.0 0.0 0.00 0.00 0.00 97 1012.6
20260904092429 59 129 0.0 0.0 0.00 0.00 0.00 97 1012.5
20260904091925 58 129 0.0 0.0 0.00 0.00 0.00 97 1012.8
20260904091421 59 129 1.0 1.0 0.00 0.00 0.00 97 1012.8
20260904090915 58 129 0.0 0.0 0.00 0.00 0.00 97 1012.7
20260904090411 58 129 0.0 0.0 0.00 0.00 0.00 97 1012.7
20260904085900 58 129 0.0 0.0 0.00 0.00 0.00 97 1012.6
20260904085356 58 129 0.0 0.0 0.00 0.00 0.00 97 1012.7
20260904084855 57 129 0.0 0.0 0.00 0.00 0.00 97 1012.9
20260904084351 57 129 0.0 0.0 0.00 0.00 0.00 97 1012.8
20260904083841 57 129 0.0 0.0 0.00 0.00 0.00 97 1012.9
20260904083337 57 129 0.0 0.0 0.00 0.00 0.00 97 1012.8
20260904082833 57 129 0.0 0.0 0.00 0.00 0.00 97 1013.0
20260904082327 57 129 0.0 0.0 0.00 0.00 0.00 97 1012.9
20260904081823 57 129 0.0 0.0 0.00 0.00 0.00 97 1013.1
20260904081318 57 129 0.0 0.0 0.00 0.00 0.00 97 1013.0
20260904080814 57 129 0.0 0.0 0.00 0.00 0.00 97 1013.0
20260904080309 57 129 0.0 0.0 0.00 0.00 0.00 97 1012.9
20260904075806 57 129 0.0 0.0 0.00 0.00 0.00 96 1013.1
20260904075300 57 129 0.0 0.0 0.00 0.00 0.00 96 1012.9
20260904074759 57 129 0.0 0.0 0.00 0.00 0.00 96 1013.2
20260904074254 57 129 0.0 0.0 0.00 0.00 0.00 96 1013.0
20260904073750 57 129 0.0 0.0 0.00 0.00 0.00 96 1013.1
20260904073245 57 129 0.0 0.0 0.00 0.00 0.00 96 1013.0
20260904072742 57 129 0.0 0.0 0.00 0.00 0.00 96 1012.9
20260904072235 57 129 0.0 0.0 0.00 0.00 0.00 96 1013.1
20260904071731 57 129 0.0 0.0 0.00 0.00 0.00 96 1013.1
20260904071231 58 129 0.0 1.0 0.00 0.00 0.00 96 1013.0
20260904070726 58 129 0.0 1.0 0.00 0.00 0.00 96 1013.3
20260904070225 58 129 0.0 0.0 0.00 0.00 0.00 96 1013.2
20260904065720 58 129 0.0 0.0 0.00 0.00 0.00 95 1013.1
20260904065217 58 129 0.0 0.0 0.00 0.00 0.00 95 1013.2
20260904064716 58 133 0.0 0.0 0.00 0.00 0.00 95 1013.0
20260904064212 58 134 0.0 0.0 0.00 0.00 0.00 95 1013.1
20260904063708 58 134 0.0 0.0 0.00 0.00 0.00 95 1013.2
20260904063203 58 134 0.0 0.0 0.00 0.00 0.00 95 1013.0
20260904062700 58 134 0.0 0.0 0.00 0.00 0.00 95 1013.1
20260904062155 58 133 1.0 1.0 0.00 0.00 0.00 95 1012.9
20260904061650 59 137 0.0 0.0 0.00 0.00 0.00 95 1013.0
20260904061147 59 136 0.0 0.0 0.00 0.00 0.00 94 1013.1
20260904060643 58 136 0.0 0.0 0.00 0.00 0.00 94 1012.9
20260904060139 59 135 2.0 2.0 0.00 0.00 0.00 94 1012.9
20260904055639 59 137 0.0 0.0 0.00 0.00 0.00 94 1012.9
20260904055134 59 137 1.0 1.0 0.00 0.00 0.00 94 1013.0
20260904054630 59 137 0.0 0.0 0.00 0.00 0.00 94 1013.1
20260904054126 59 137 0.0 0.0 0.00 0.00 0.00 94 1012.9
20260904053620 59 126 2.0 2.0 0.00 0.00 0.00 93 1013.1
20260904053115 59 139 0.0 0.0 0.00 0.00 0.00 93 1013.0
20260904052612 59 137 0.0 0.0 0.00 0.00 0.00 93 1012.9
20260904052107 60 142 0.0 0.0 0.00 0.00 0.00 93 1013.1
20260904051604 60 142 0.0 1.0 0.00 0.00 0.00 92 1013.1
20260904051103 60 141 0.0 0.0 0.00 0.00 0.00 92 1012.9
20260904050559 61 147 0.0 0.0 0.00 0.00 0.00 92 1013.1
20260904050055 61 147 0.0 0.0 0.00 0.00 0.00 91 1013.1
20260904045549 60 146 0.0 0.0 0.00 0.00 0.00 91 1012.9
20260904045044 61 145 0.0 1.0 0.00 0.00 0.00 91 1013.0
20260904044540 62 175 0.0 0.0 0.00 0.00 0.00 91 1013.1
20260904044036 61 175 0.0 1.0 0.00 0.00 0.00 91 1013.0
20260904043532 62 160 1.0 1.0 0.00 0.00 0.00 90 1012.9
20260904043028 63 140 2.0 2.0 0.00 0.00 0.00 89 1012.9
20260904042524 63 150 1.0 1.0 0.00 0.00 0.00 90 1012.9
20260904042019 63 148 0.0 0.0 0.00 0.00 0.00 89 1013.1
20260904041515 63 148 0.0 0.0 0.00 0.00 0.00 89 1012.9
20260904041011 63 147 1.0 1.0 0.00 0.00 0.00 89 1012.9
20260904040510 63 170 1.0 1.0 0.00 0.00 0.00 88 1012.9
20260904040008 64 156 0.0 0.0 0.00 0.00 0.00 88 1012.9
20260904035502 64 146 0.0 0.0 0.00 0.00 0.00 88 1012.9
20260904035001 64 113 1.0 1.0 0.00 0.00 0.00 88 1013.0
20260904034456 64 166 0.0 1.0 0.00 0.00 0.00 88 1012.8
20260904033952 64 166 0.0 1.0 0.00 0.00 0.00 87 1012.8
20260904033448 64 141 1.0 1.0 0.00 0.00 0.00 87 1012.8
20260904032944 65 151 0.0 0.0 0.00 0.00 0.00 86 1012.7
20260904032439 65 175 0.0 1.0 0.00 0.00 0.00 86 1012.5
20260904031939 65 148 0.0 1.0 0.00 0.00 0.00 86 1012.5
20260904031434 65 149 2.0 2.0 0.00 0.00 0.00 86 1012.5
20260904030930 65 130 1.0 1.0 0.00 0.00 0.00 86 1012.5
20260904030425 65 170 1.0 1.0 0.00 0.00 0.00 86 1012.4
20260904025920 65 145 2.0 2.0 0.00 0.00 0.00 85 1012.4
20260904025417 65 65 4.0 5.0 0.00 0.00 0.00 85 1012.5
20260904024916 66 185 1.0 2.0 0.00 0.00 0.00 85 1012.1
20260904024411 66 176 1.0 2.0 0.00 0.00 0.00 84 1012.2
20260904023908 66 106 2.0 3.0 0.00 0.00 0.00 84 1012.2
20260904023404 66 175 0.0 1.0 0.00 0.00 0.00 84 1012.5
20260904022902 66 153 1.0 2.0 0.00 0.00 0.00 84 1012.5
20260904022359 66 91 2.0 2.0 0.00 0.00 0.00 84 1012.3
20260904021856 66 120 5.0 6.0 0.00 0.00 0.00 84 1012.4
20260904021351 67 125 3.0 3.0 0.00 0.00 0.00 83 1012.6
20260904020846 67 165 3.0 3.0 0.00 0.00 0.00 83 1012.3
20260904020341 67 157 2.0 2.0 0.00 0.00 0.00 82 1012.3
20260904015839 67 130 2.0 2.0 0.00 0.00 0.00 82 1012.5
20260904015335 68 122 3.0 3.0 0.00 0.00 0.00 81 1012.4
20260904014834 68 136 2.0 2.0 0.00 0.00 0.00 81 1012.6
20260904014329 68 151 2.0 2.0 0.00 0.00 0.00 80 1012.5
20260904013825 69 176 1.0 1.0 0.00 0.00 0.00 79 1012.4
20260904013321 69 155 1.0 1.0 0.00 0.00 0.00 77 1012.2
20260904012816 70 149 1.0 2.0 0.00 0.00 0.00 75 1012.2
20260904012311 71 163 1.0 1.0 0.00 0.00 0.00 74 1012.5
20260904011810 71 110 4.0 5.0 0.00 0.00 0.00 73 1012.6
20260904011306 72 196 2.0 2.0 0.00 0.00 0.00 71 1012.6
20260904010805 73 103 5.0 7.0 0.00 0.00 0.00 68 1012.5
20260904010302 72 170 2.0 2.0 0.00 0.00 0.00 67 1012.6
20260904005757 73 132 3.0 3.0 0.00 0.00 0.00 67 1012.4
20260904005253 73 117 3.0 5.0 0.00 0.00 0.00 67 1012.5
20260904004747 73 200 1.0 2.0 0.00 0.00 0.00 67 1012.4
20260904004244 73 176 2.0 2.0 0.00 0.00 0.00 69 1012.5
20260904003738 73 135 2.0 2.0 0.00 0.00 0.00 68 1012.4
20260904003234 73 157 3.0 6.0 0.00 0.00 0.00 68 1012.4
20260904002730 73 168 1.0 2.0 0.00 0.00 0.00 68 1012.5
20260904002226 74 240 1.0 2.0 0.00 0.00 0.00 67 1012.5
20260904001720 73 189 1.0 1.0 0.00 0.00 0.00 69 1012.3
20260904001220 75 131 3.0 3.0 0.00 0.00 0.00 69 1012.6
20260904000715 74 252 2.0 3.0 0.00 0.00 0.00 69 1012.7
20260904000211 75 150 4.0 6.0 0.00 0.00 0.00 69 1012.5
20260903235709 75 202 2.0 3.0 0.00 0.00 0.00 68 1012.5
20260903235206 75 127 3.0 5.0 0.00 0.00 0.00 68 1012.5
20260903234700 76 159 4.0 5.0 0.00 0.00 0.00 67 1012.6
20260903234156 76 162 1.0 2.0 0.00 0.00 0.00 66 1012.4
20260903233652 76 125 1.0 1.0 0.00 0.00 0.00 67 1012.8
20260903233148 76 119 2.0 2.0 0.00 0.00 0.00 66 1012.5
20260903232641 77 133 8.0 8.0 0.00 0.00 0.00 64 1012.4
20260903232138 76 184 2.0 3.0 0.00 0.00 0.00 65 1012.5
20260903231631 76 150 6.0 7.0 0.00 0.00 0.00 65 1012.6
20260903231126 77 139 6.0 7.0 0.00 0.00 0.00 64 1012.5
20260903230622 76 185 1.0 2.0 0.00 0.00 0.00 65 1012.6
20260903230121 76 188 5.0 6.0 0.00 0.00 0.00 67 1012.6
20260903225618 77 116 7.0 10.0 0.00 0.00 0.00 63 1012.7
20260903225114 77 136 3.0 3.0 0.00 0.00 0.00 65 1012.4
20260903224610 77 138 5.0 6.0 0.00 0.00 0.00 63 1012.6
20260903224106 77 111 8.0 10.0 0.00 0.00 0.00 63 1012.6
20260903223601 77 206 2.0 3.0 0.00 0.00 0.00 64 1012.5
20260903223059 78 138 3.0 3.0 0.00 0.00 0.00 62 1012.8
20260903222554 77 169 6.0 7.0 0.00 0.00 0.00 64 1012.8
20260903222053 77 208 3.0 5.0 0.00 0.00 0.00 63 1012.8
20260903221549 77 186 5.0 7.0 0.00 0.00 0.00 64 1012.5
20260903221046 77 128 8.0 9.0 0.00 0.00 0.00 60 1012.9
20260903220540 77 130 5.0 7.0 0.00 0.00 0.00 60 1012.8
20260903220039 78 136 3.0 3.0 0.00 0.00 0.00 60 1012.8
20260903215539 77 80 11.0 16.0 0.00 0.00 0.00 59 1012.8
20260903215038 78 137 10.0 13.0 0.00 0.00 0.00 56 1012.9
20260903214538 78 122 9.0 11.0 0.00 0.00 0.00 60 1012.9
20260903214033 78 102 7.0 9.0 0.00 0.00 0.00 60 1013.0
20260903213529 77 97 9.0 13.0 0.00 0.00 0.00 61 1013.0
20260903213024 77 59 4.0 6.0 0.00 0.00 0.00 63 1012.9
20260903212520 77 158 5.0 6.0 0.00 0.00 0.00 63 1013.0
20260903212015 78 158 5.0 7.0 0.00 0.00 0.00 65 1013.1
20260903211510 77 184 5.0 8.0 0.00 0.00 0.00 65 1013.0
20260903211007 78 147 4.0 5.0 0.00 0.00 0.00 64 1013.1
20260903210506 78 126 5.0 6.0 0.00 0.00 0.00 64 1013.3
20260903210002 78 122 5.0 8.0 0.00 0.00 0.00 64 1013.0
20260903205456 79 128 9.0 10.0 0.00 0.00 0.00 63 1013.0
20260903204950 78 102 4.0 7.0 0.00 0.00 0.00 63 1013.0
20260903204447 79 85 6.0 9.0 0.00 0.00 0.00 63 1012.8
20260903203942 79 112 5.0 6.0 0.00 0.00 0.00 62 1013.0
20260903203438 79 159 5.0 6.0 0.00 0.00 0.00 63 1012.9
20260903202936 79 232 2.0 2.0 0.00 0.00 0.00 63 1013.0
20260903202433 79 107 4.0 5.0 0.00 0.00 0.00 63 1013.2
20260903201927 79 222 5.0 7.0 0.00 0.00 0.00 63 1013.2
20260903201423 79 121 5.0 7.0 0.00 0.00 0.00 63 1013.3